Zurück zum Katalog

ORBCOMM FM 116

AktivKommunikationLEO
NORAD 41189·PAYLOAD·🇺🇸 United States

Gestartet Dec 22, 2015 von Cape Canaveral Space Force Station

Loading…

Nächste Überflüge (nächste 24 Stunden)

TLE

AktuellSource: Space-Track

Epoche: Sep 14, 2026, 14:31 UTC

1 41189U 15081L   26257.60509260  .00000331  00000-0  10604-3 0  9999
2 41189  47.0014 207.8050 0000478 105.5799 254.5140 14.58958505571990

Verfolge ORBCOMM FM 116 in Echtzeit mit AllMySat

Download on the App Store